CAPE
113 98 105 109 60 38 69 82 34 3 0 1 0 0 44 172 93 0 0 0 0 0 0 0 0 0 0 0 5 7 18 25 24 26 21 14 12 21 31 40 33 5 0 0
124 81 87 97 81 74 42 0 0 0 0 0 0 0 52 113 18 0 0 0 0 0 0 0 0 0 0 1 7 8 20 23 25 24 20 14 0 20 29 38 36 7 0 0
205 122 126 139 116 77 31 0 0 0 0 0 0 0 49 52 6 0 0 0 0 0 0 0 0 0 3 5 8 10 21 19 20 14 2 0 2 3 8 33 30 5 0 0
315 161 156 158 15 1 2 0 0 0 0 0 0 6 39 51 0 0 0 0 0 0 0 0 1 2 5 9 10 16 22 9 9 0 0 0 0 0 5 17 11 1 0 0
365 127 167 7 0 0 0 0 0 0 0 0 0 0 0 0 0 0 0 0 0 0 1 1 2 5 8 15 15 19 19 5 0 0 0 0 0 0 0 0 0 0 0 0
426 513 326 205 2 0 0 0 0 0 0 0 0 0 22 0 0 0 0 0 0 1 2 5 6 8 11 17 21 21 14 0 0 0 0 0 0 0 0 0 0 0 0 0
388 422 206 19 0 0 0 8 0 0 0 0 1 89 2 0 0 0 0 0 0 1 3 10 11 11 11 17 19 22 1 0 0 0 0 0 0 0 0 0 0 0 0 0
483 390 390 96 0 0 266 125 9 1 4 20 7 0 0 0 0 0 0 0 0 4 5 11 8 10 5 17 18 10 0 2 7 9 0 0 0 14 8 11 5 5 13 24
681 473 874 215 200 131 170 91 103 161 37 24 0 0 0 0 0 0 0 1 2 3 10 12 9 11 13 18 18 5 4 12 16 6 12 16 17 18 16 17 28 27 22 24
673 684 603 361 193 118 17 70 117 144 26 0 0 0 0 0 0 0 1 2 1 8 13 14 11 19 15 23 8 10 13 13 8 6 1 12 8 5 8 9 15 21 32 45
433 421 417 339 284 186 38 75 60 9 0 0 0 0 0 0 0 0 0 2 5 10 15 21 22 24 23 10 15 16 8 5 3 5 0 1 11 3 0 4 3 2 9 23
395 354 376 238 457 296 85 80 22 0 0 0 0 0 0 0 0 0 1 6 9 13 19 21 19 18 9 15 9 9 4 4 2 1 2 3 4 8 0 0 0 0 0 0
334 569 666 658 675 241 131 71 16 5 0 0 0 0 0 0 0 0 3 4 10 15 18 17 16 7 9 9 6 4 4 1 5 0 8 7 6 8 12 0 0 0 0 0
301 384 501 515 487 211 201 65 2 5 0 0 0 0 0 0 0 0 1 4 10 12 15 11 7 6 7 7 5 5 3 0 1 8 9 7 6 6 8 12 14 17 1 0
231 395 537 603 327 202 109 12 3 0 0 0 0 0 0 0 0 0 1 5 10 12 8 8 8 11 10 6 2 6 3 6 11 8 6 0 0 7 9 10 19 25 25 7
233 328 306 422 316 178 69 33 15 0 0 0 0 0 0 0 0 0 3 5 10 10 8 8 8 9 9 5 4 5 0 0 0 1 12 5 4 5 8 13 25 24 25 19
314 380 397 451 369 267 165 110 91 0 0 0 0 0 0 0 0 1 3 7 10 10 9 6 4 5 3 3 3 5 8 23 28 0 12 3 1 7 13 19 20 16 24 2
45 332 396 406 370 338 242 114 42 0 0 0 0 0 0 0 0 0 4 9 10 7 6 5 10 10 5 7 4 6 17 21 20 10 3 2 0 10 17 15 11 10 11 9
0 0 42 212 343 338 235 91 5 0 0 0 0 0 0 0 0 1 6 7 6 7 6 8 0 0 14 7 1 2 3 15 11 5 1 0 8 13 12 1 0 0 2 9
0 0 0 130 168 239 141 25 0 0 0 0 0 0 0 0 1 2 6 5 11 7 7 11 0 9 8 0 0 0 1 0 1 1 0 3 0 1 0 0 0 0 2 9
0 0 0 118 127 91 41 11 0 0 0 0 0 0 0 0 1 3 13 25 32 9 26 0 14 10 8 2 0 2 0 0 1 0 0 0 0 0 0 0 0 0 0 1
0 0 0 127 119 83 36 29 0 0 0 0 0 0 0 1 4 11 20 31 24 0 4 10 5 1 11 0 7 0 0 0 0 0 0 0 0 0 0 0 0 0 0 0
69 0 0 88 121 122 59 42 13 0 0 0 0 0 0 0 2 15 29 29 25 0 14 30 1 0 0 0 0 0 0 0 0 0 0 0 0 0 0 0 0 0 0 0
47 88 0 38 91 74 74 64 30 5 0 0 0 0 0 1 9 22 20 0 1 0 16 0 0 0 0 3 1 0 0 0 0 0 0 0 0 0 0 0 0 0 0 0
24 106 32 78 134 117 150 71 38 4 0 0 0 1 4 12 17 23 10 18 0 8 3 0 0 0 0 0 0 0 0 0 0 0 0 0 0 0 0 0 0 0 0 0
85 170 113 99 132 228 127 72 40 1 0 1 2 8 16 21 16 16 14 24 36 8 1 0 0 0 0 0 0 0 0 0 0 0 0 0 0 0 0 0 0 0 2 7
124 52 63 55 109 146 91 89 64 2 0 1 3 10 19 19 10 26 11 43 51 38 33 0 0 0 0 0 0 0 0 0 0 0 0 0 0 0 1 5 9 14 12 12
CIN
0 -1 -1 0 -3 -13 -10 -3 0 0 0 0 0 0 -5 -28 -68 0 0 0 0 0 0 0 0 0 0 0 0 0 0 0 0 0 0 0 0 0 0 0 0 0 0 0
-15 -21 -6 -7 -7 -19 -21 0 0 0 0 0 0 0 -32 -49 -99 0 0 0 0 0 0 0 0 0 0 0 0 0 0 0 0 0 0 0 0 0 0 0 0 0 0 0
0 -32 -24 -12 -9 -20 -17 0 0 0 0 0 0 0 -72 -90 -95 0 0 0 0 0 0 0 0 0 0 0 0 0 0 0 0 0 0 0 0 0 0 0 0 0 0 0
-2 -28 -3 -4 -42 -20 -9 0 0 0 0 0 0 -39 -80 -92 0 0 0 0 0 0 0 0 0 0 0 0 0 0 0 0 0 0 0 0 0 0 0 0 0 0 0 0
-11 -31 -7 -21 0 0 0 0 0 0 0 0 0 0 0 0 0 0 0 0 0 0 0 0 0 0 0 0 0 0 0 0 0 0 0 0 0 0 0 0 0 0 0 0
-2 -1 0 0 -18 0 0 0 0 0 0 0 0 0 -24 0 0 0 0 0 0 0 0 0 0 0 0 0 0 0 0 0 0 0 0 0 0 0 0 0 0 0 0 0
-2 0 0 -8 0 0 0 -2 0 0 0 0 -4 -54 -15 0 0 0 0 0 0 0 0 0 0 0 0 0 0 0 0 0 0 0 0 0 0 0 0 0 0 0 0 0
0 0 0 -17 0 0 -16 -34 -31 -21 -41 -52 -25 0 0 0 0 0 0 0 0 0 0 0 0 0 0 0 0 0 0 0 0 0 0 0 0 -3 -3 -9 0 0 -1 -1
0 -1 -9 -36 -7 -32 -24 -29 -42 -32 -67 -81 0 0 0 0 0 0 0 0 0 0 0 0 0 0 0 0 0 0 0 0 0 0 0 0 -4 -3 0 0 0 0 0 0
-17 -23 -25 -38 -62 -58 -40 -36 -47 -47 -97 0 0 0 0 0 0 0 0 0 0 0 0 0 0 0 0 0 0 0 0 0 0 0 -1 0 0 0 0 0 0 0 0 0
-1 -24 -36 -34 -36 -45 -78 -78 -91 -75 0 0 0 0 0 0 0 0 0 0 0 0 0 0 0 0 0 0 0 0 0 0 0 0 0 0 0 0 0 0 0 0 0 0
0 -1 -3 -1 -29 -46 -72 -73 -114 0 0 0 0 0 0 0 0 0 0 0 0 0 0 0 0 0 0 0 0 0 0 0 0 0 0 0 0 0 0 0 0 0 0 0
0 -37 -8 -34 -14 -46 -39 -64 -102 -108 0 0 0 0 0 0 0 0 0 0 0 0 0 0 0 0 0 0 0 0 0 0 0 0 0 0 0 0 0 0 0 0 0 0
-69 -69 -49 -40 -36 -61 -53 -88 -30 -45 0 0 0 0 0 0 0 0 0 0 0 0 0 0 0 0 0 0 0 0 0 0 0 0 0 0 0 0 0 0 0 0 -1 0
-62 -72 -59 -32 -70 -90 -116 -155 -54 0 0 0 0 0 0 0 0 0 0 0 0 0 0 0 0 0 0 0 0 0 0 0 0 0 0 0 -1 0 0 0 0 0 0 -10
-49 -66 -70 -47 -54 -103 -111 -106 -88 0 0 0 0 0 0 0 0 0 0 0 0 0 0 0 0 0 0 0 0 0 0 0 0 0 0 0 0 0 0 0 0 0 0 0
-39 -38 -37 -32 -43 -66 -63 -54 -48 0 0 0 0 0 0 0 0 0 0 0 0 0 0 0 0 0 0 0 0 0 0 0 0 0 0 0 0 0 0 0 0 0 0 -4
-60 -38 -31 -13 -16 -29 -47 -72 -81 0 0 0 0 0 0 0 0 0 0 0 0 0 0 0 0 0 0 0 0 0 0 0 0 0 0 0 0 0 0 0 0 0 0 0
0 0 -52 -38 -14 -21 -46 -75 -39 0 0 0 0 0 0 0 0 0 0 0 0 0 0 0 0 0 0 -2 0 0 0 0 0 0 0 0 -1 0 0 0 0 0 0 0
0 0 0 -60 -58 -44 -77 -109 0 0 0 0 0 0 0 0 0 0 0 0 0 0 0 0 0 0 0 0 0 0 0 0 0 0 0 0 0 0 0 0 0 0 0 0
0 0 0 -57 -63 -70 -90 -119 0 0 0 0 0 0 0 0 0 0 0 0 0 -10 0 0 0 0 0 0 0 0 0 0 0 0 0 0 0 0 0 0 0 0 0 0
0 0 0 -41 -76 -80 -109 -144 0 0 0 0 0 0 0 0 0 0 0 0 0 0 0 0 0 0 0 0 0 0 0 0 0 0 0 0 0 0 0 0 0 0 0 0
-47 0 0 -48 -65 -84 -127 -133 -133 0 0 0 0 0 0 0 0 0 0 -1 0 0 0 0 -1 0 0 0 0 0 0 0 0 0 0 0 0 0 0 0 0 0 0 0
-55 -50 0 -69 -64 -114 -121 -121 -117 -88 0 0 0 0 0 0 0 0 -1 0 0 0 -7 0 0 0 0 0 0 0 0 0 0 0 0 0 0 0 0 0 0 0 0 0
-76 -51 -70 -63 -86 -89 -81 -109 -85 -85 0 0 0 0 0 0 0 -1 0 -1 0 -5 -2 0 0 0 0 0 0 0 0 0 0 0 0 0 0 0 0 0 0 0 0 0
-56 -39 -51 -62 -66 -44 -85 -84 -65 -52 0 0 0 0 0 0 -1 -1 0 -1 0 -1 0 0 0 0 0 0 0 0 0 0 0 0 0 0 0 0 0 0 0 0 0 0
-28 -67 -61 -56 -11 -33 -76 -54 -57 -41 0 0 0 0 0 0 0 -1 -1 0 0 0 0 0 0 0 0 0 0 0 0 0 0 0 0 0 0 0 0 0 0 0 0 0
Wind_Speed
15 6 10 13 14 14 13 12 10 11 12 10 8 6 8 10 13 15 16 16 15 13 11 9 8 7 5 5 6 4 5 2 2 3 3 5 6 5 4 4 6 7 8 7
10 9 10 12 10 12 12 11 12 13 14 10 6 3 8 11 14 15 16 16 15 13 12 10 8 7 6 6 6 5 5 2 1 2 3 5 5 6 4 4 5 6 8 8
11 10 9 9 11 12 10 8 9 11 6 4 3 5 8 10 12 13 14 15 15 13 12 9 8 7 7 6 6 6 5 2 2 4 4 5 4 6 6 5 4 5 6 6
6 9 13 5 7 1 6 8 6 7 3 1 3 5 4 7 10 11 13 14 14 12 11 9 8 7 7 7 6 6 5 1 3 4 4 3 4 5 5 4 4 5 5 5
5 3 11 5 7 7 8 7 5 7 6 5 6 6 6 6 8 10 12 12 12 11 11 9 8 8 7 8 7 7 5 1 2 3 2 5 5 5 5 5 4 3 3 4
9 11 16 6 10 6 3 9 6 8 8 9 9 7 9 10 9 11 12 12 12 12 11 9 8 8 8 8 9 7 5 4 1 4 4 5 5 4 4 3 4 3 2 3
10 8 5 9 11 9 8 3 7 7 8 10 7 6 11 12 11 12 12 13 13 11 9 9 9 9 9 9 9 6 5 3 3 3 2 1 1 1 2 3 4 3 4 5
9 12 6 14 11 8 7 7 9 8 10 10 9 10 12 12 13 14 14 13 12 9 9 9 9 9 10 10 8 6 5 5 5 4 3 2 4 4 4 4 5 4 4 7
8 5 9 16 4 7 6 10 9 9 9 11 12 12 13 13 13 12 13 11 9 9 10 9 10 9 10 10 8 7 6 5 5 4 4 4 5 5 6 5 6 6 5 5
6 8 10 13 6 9 7 7 8 9 12 13 13 13 13 12 12 11 10 10 9 10 11 11 11 10 10 9 8 7 6 5 4 5 3 4 5 4 5 5 5 6 7 6
3 4 6 8 12 11 9 10 11 12 13 13 14 13 13 12 12 10 10 9 9 10 10 12 11 11 9 9 7 7 5 4 5 6 5 4 5 5 6 6 5 7 8 8
6 7 9 9 14 14 14 14 14 15 14 12 12 13 13 11 10 11 10 10 10 11 11 12 12 11 10 8 8 6 6 6 2 5 3 4 5 5 10 11 9 9 12 9
1 5 2 2 13 16 16 15 14 13 14 15 12 12 12 12 11 10 11 11 12 12 12 13 12 11 9 8 7 6 5 3 5 5 5 4 5 6 7 4 15 14 13 12
3 4 7 10 8 14 15 15 12 13 13 12 13 12 12 12 12 11 11 11 12 13 13 12 11 10 9 8 7 6 5 1 7 6 5 6 5 6 6 5 7 8 7 14
6 4 3 8 14 15 16 16 16 15 14 14 12 13 13 13 13 11 12 13 13 13 12 11 10 9 8 8 7 7 6 6 5 5 6 5 7 6 6 6 7 9 8 1
6 6 6 11 14 16 17 17 16 15 14 14 13 13 12 12 12 13 14 14 13 12 11 10 9 8 8 8 8 6 6 6 6 7 7 6 6 6 6 7 8 9 9 10
5 8 8 10 13 16 16 14 13 14 14 14 14 14 13 13 13 13 14 13 11 10 10 9 8 8 7 7 7 6 5 4 6 8 7 5 5 6 7 8 8 8 8 8
5 5 6 6 11 13 14 13 13 15 14 15 15 14 14 13 13 14 14 13 11 9 9 9 8 7 6 6 7 6 5 6 5 5 5 5 6 6 7 8 9 8 8 6
9 10 8 4 5 10 12 13 14 14 15 15 15 14 12 11 12 13 14 13 12 10 10 9 9 4 6 3 4 6 5 6 5 4 3 2 3 6 7 9 9 8 8 7
12 11 8 6 7 11 13 13 15 15 15 15 14 13 12 11 12 13 14 12 10 7 10 9 8 8 6 7 5 8 5 4 4 3 5 5 7 7 7 6 7 7 7 7
9 11 9 9 9 11 13 15 16 16 16 15 14 13 12 12 13 13 13 10 10 7 6 9 7 6 6 4 6 7 3 2 1 3 5 6 5 6 6 6 6 7 7 7
5 8 10 10 11 12 13 14 15 15 15 14 13 12 12 12 13 12 11 7 10 9 8 7 8 3 5 1 6 1 2 4 4 5 6 6 6 5 6 6 7 6 6 6
2 6 9 11 12 13 15 15 15 16 16 14 14 13 11 10 10 10 10 6 9 8 8 4 8 7 4 6 2 4 6 6 6 6 6 5 5 6 6 7 6 6 7 6
3 5 9 10 12 14 16 15 15 14 14 14 13 13 11 9 9 7 7 8 12 10 1 7 6 5 7 4 6 6 6 6 6 6 6 4 6 6 6 6 6 6 6 5
5 5 10 12 14 12 16 16 15 14 14 13 13 11 10 7 8 7 9 10 11 9 9 6 4 5 4 6 6 7 7 7 6 6 6 6 6 6 6 6 7 7 6 6
5 6 9 13 11 12 13 14 12 12 12 11 10 9 8 7 8 8 10 12 11 8 10 9 7 6 7 8 9 8 7 7 6 7 6 6 7 7 7 6 6 6 6 6
5 4 9 11 10 11 12 13 13 12 11 11 11 10 9 10 10 8 11 10 8 7 8 8 8 7 8 9 9 9 8 8 7 6 7 7 7 6 6 7 7 7 8 9
Wind_Direction
243 263 200 212 197 197 215 236 253 270 290 303 291 320 178 179 165 171 177 172 170 174 166 163 160 152 157 143 156 150 153 143 59 2 351 1 360 343 343 355 24 19 20 23
190 180 194 208 201 204 221 249 264 276 285 288 59 252 165 173 175 178 180 175 173 172 166 168 164 165 160 159 167 174 169 149 299 320 341 358 5 8 348 2 28 16 24 29
185 182 177 219 216 219 231 234 260 275 339 70 173 187 177 173 183 181 176 173 174 171 169 166 165 162 168 169 165 179 171 159 320 318 322 332 347 6 19 15 27 22 23 23
130 187 219 114 128 344 262 274 246 253 257 155 99 106 147 168 179 175 169 172 168 167 162 161 155 166 153 166 171 175 169 153 310 321 330 314 1 20 21 37 29 19 16 13
171 227 314 223 195 203 221 270 210 229 157 149 135 157 147 164 170 161 166 161 161 157 155 154 162 157 171 169 171 179 161 115 357 24 58 66 51 38 35 21 14 9 13 3
201 205 214 226 132 148 142 258 191 213 172 168 168 220 106 151 149 143 148 151 148 149 151 157 157 156 175 172 172 176 159 120 115 102 86 77 57 51 47 11 51 338 351 358
195 206 213 125 144 152 221 100 137 179 165 166 187 41 115 134 138 142 141 143 145 150 159 158 153 161 181 172 176 151 168 162 174 159 139 90 326 345 359 354 340 343 332 321
197 216 215 141 152 216 101 118 146 161 158 160 113 124 131 138 140 143 144 143 155 154 155 148 151 174 175 175 158 170 182 193 205 221 252 258 277 286 281 282 276 296 280 278
209 197 113 170 211 159 158 155 164 164 154 147 146 143 143 143 145 150 150 155 155 154 148 145 169 183 174 166 169 183 188 208 231 248 256 260 272 288 276 242 264 287 309 317
161 156 160 184 154 166 175 145 151 146 153 154 152 148 145 146 150 154 156 156 160 159 158 160 174 180 173 162 175 191 194 211 219 243 284 261 292 278 287 292 299 303 308 310
166 140 158 190 191 171 148 136 135 137 148 156 150 154 151 153 156 157 157 155 164 169 167 164 168 171 169 172 187 199 193 206 231 234 235 276 257 307 309 298 312 316 319 323
227 193 219 197 180 169 159 154 149 144 147 147 155 150 153 154 156 158 160 160 166 169 168 161 167 170 175 184 195 197 203 212 238 285 261 275 299 305 214 241 258 246 258 257
292 339 185 76 161 167 159 151 151 150 148 148 144 148 154 152 156 149 157 166 170 168 166 162 168 173 178 183 199 203 235 274 253 244 263 293 307 308 310 251 231 236 236 232
199 160 166 167 158 158 147 143 145 138 140 141 142 149 147 149 144 160 162 165 165 164 160 166 170 172 176 185 201 212 227 149 273 265 287 288 316 315 303 310 326 323 228 228
201 180 352 132 143 146 143 148 148 146 142 142 147 149 153 150 160 158 156 157 161 161 165 172 176 171 183 195 211 228 231 247 239 271 277 312 286 302 302 324 328 325 330 229
165 168 157 160 154 154 157 163 161 155 154 149 151 154 153 153 152 153 157 160 166 171 172 181 189 188 192 210 222 233 232 253 279 290 289 300 314 312 326 333 328 340 341 27
185 188 169 169 169 171 176 174 169 161 153 155 152 150 151 151 155 160 164 167 177 175 182 191 190 188 193 213 221 251 240 232 218 273 275 331 318 326 332 332 344 351 354 65
270 285 197 201 182 174 173 173 161 159 161 152 147 153 156 162 165 167 168 170 181 182 187 189 192 184 207 220 227 236 245 270 285 294 323 326 0 327 349 350 356 355 359 39
237 244 246 234 232 171 166 164 158 157 150 150 153 159 162 165 163 166 168 176 183 188 190 194 135 210 227 160 268 235 253 265 275 295 343 325 311 1 18 0 353 8 3 4
232 234 240 204 171 162 155 156 154 151 154 153 150 151 157 160 162 165 172 181 187 193 165 173 180 195 199 152 201 252 240 264 303 360 28 1 11 16 15 37 5 12 14 7
231 224 214 192 162 158 157 157 156 156 154 153 153 156 155 155 166 167 174 183 174 146 170 139 206 189 191 175 204 234 291 341 5 42 24 22 27 24 24 19 20 18 13 9
228 214 199 176 165 158 155 158 157 150 151 151 149 147 148 158 166 173 183 188 156 154 186 187 189 137 73 249 240 315 141 85 63 48 40 33 33 31 28 21 22 21 15 18
268 226 199 165 170 160 154 159 154 154 152 154 152 153 158 159 168 172 170 175 150 180 214 178 90 104 135 242 154 105 86 75 59 53 51 49 46 39 34 34 24 24 29 17
281 213 204 169 157 154 157 159 153 154 153 152 155 156 152 158 162 184 139 112 122 165 212 99 112 156 240 141 113 108 99 79 67 71 84 45 50 47 45 33 32 33 38 33
288 223 187 172 167 167 156 153 149 145 146 147 150 156 159 159 164 137 154 147 130 190 111 97 134 210 168 108 98 80 66 54 56 76 66 58 56 52 50 52 43 26 41 45
256 202 180 179 178 162 157 158 151 151 150 148 152 158 160 156 128 146 154 148 156 145 129 156 147 148 113 103 92 87 89 92 75 59 63 65 62 61 59 62 59 61 61 61
191 177 169 180 174 155 161 161 155 152 155 153 151 154 149 134 162 155 150 147 144 145 135 125 135 109 115 102 93 89 83 73 39 75 74 74 75 77 74 70 65 62 60 48